COSMOS 252 DEB *, 4421

Orbit data source: Space-Track

COSMOS 252 DEB *, 4421 is space debris in LEO originally from a launch on Fri, 01 Nov 1968 UTC launched from the Tyuratam Missile And Space Complex (TTMTR). Debris objects in space refer to the collection of defunct objects orbiting the Earth. Examples of debris include non-operational satellites, rocket bodies, and fragments generated from explosions, collisions, or faulty payload assembly.

Loading next visibility...
Identifier
4421, 1968-097CF
Orbit
LEO
Country
Flag of CISCIS
Related business
Manufacturer
Unknown
Mission
Spacecraft
Bus & Motor
Unknown
Mass
Unknown
Launch date (UTC)
1968-11-01 (57 years ago)
Launch vehicle
Unknown
Launch site
Tyuratam Missile And Space Complex (TTMTR)
Object type
Payload
Rocket body
Debris
Shape & HBR
Unknown shape, 0.1 m
Radar Cross Section
Small (<0.1 m²)

Expand to show TLE details & history
Last TLE update: 16 hours ago

TLE from 16 hours ago
0 COSMOS 252 DEB *
1 04421U 68097CF  26100.15772677  .00003511  00000-0  57344-3 0  9998
2 04421  62.7351  35.4111 0625704 164.5878 197.5229 13.90057375549985
Epoch: 2026-04-10T03:47Z
TLE epoch observation values (Epoch: 2026-04-10T03:47:07.592Z)
Latitude
0.00002°
Longitude
140.23406°
Altitude
1,368.565 km
Speed
6.957 km/s
True Right ascension
02h 21m 38s
True Declination
0° 00' 00"
Sunlit
Object was in daylight at epoch
Visualization orbit readout
Latitude
Unknown
Longitude
Unknown
Altitude
Unknown
Speed
Unknown
Apparent Right ascension
Unknown
Apparent Declination
Unknown
Sunlit
N/A
Visualization observer readout
Local Sidereal Time
01:46:02
Azimuth
Unknown
Elevation
Unknown
Doppler factor
Unknown
Orbital elements
Apogee altitude
1,384.416 km
Perigee altitude
470.207 km
Semi-major axis
7,305.448 km
Eccentricity
0.06257
Inclination
62.7351°
RAAN
35.4111°
Arg. of periapsis
164.5878°
True anomaly
195.51471°
Mean anomaly
197.5229°
Eccentric anomaly
196.50443°
Mean motion
3.47594 °/min
Orbital period
103.57 mins
BSTAR
0.00057344
Loading maneuver chart data...
Computing Atmospheric mass density...

Documentation

Showing up to 5 results
|